Weather History for KNID - November, 2013

Change the Weather History Date:

Wednesday, November 27, 2013

  Actual Average Record
Temperature  
Mean Temperature 51 °F -  
Max Temperature 63 °F 59 °F 72 °F (2014)
Min Temperature 39 °F 35 °F 19 °F (2010)
Degree Days  
Heating Degree Days 14    
Growing Degree Days 1 (Base 50)    
Moisture  
Dew Point 37 °F    
Average Humidity 66    
Maximum Humidity 93    
Minimum Humidity 35    
Precipitation  
Precipitation 0.00 in - - ()
Sea Level Pressure  
Sea Level Pressure 30.07 in    
Wind  
Wind Speed 4 mph (SW)    
Max Wind Speed 7 mph    
Max Gust Speed -    
Visibility 10 miles    
Events      
Averages and records for this station are not official NWS values.
T = Trace of Precipitation, MM = Missing Value Source: NWS Daily Summary

Daily Weather History Graph

Daily Weather History Graph

Search for Another Location

Airport or City:

Trip Planner

Search our weather history database for the weather conditions in past years. The results will help you decide how hot, cold, wet, or windy it might be!

Date:

Astronomy

Nov. 27, 2013 Rise Set
Actual Time 6:38 AM PST 4:38 PM PST
Civil Twilight 6:10 AM PST 5:06 PM PST
Nautical Twilight 5:39 AM PST 5:37 PM PST
Astronomical Twilight 5:08 AM PST 6:08 PM PST
Moon 12:56 AM PST (11/27) 1:08 PM PST (11/27)
Length of Visible Light 10h 55m
Length of Day
9h 59m
Waning Crescent, 30% of the Moon is Illuminated
Nov 27
Waning Crescent
Dec 2
New
Dec 9
First Quarter
Dec 17
Full
Dec 25
Last Quarter

Hourly Weather History & Observations

Time (PST) Temp. Windchill Dew Point Humidity Pressure Visibility Wind Dir Wind Speed Gust Speed Precip Events Conditions
12:56 AM 43.0 °F 39.5 °F 39.0 °F 86% 30.16 in 10.0 mi South 5.8 mph - N/A   Clear
1:56 AM 44.1 °F 41.5 °F 37.9 °F 79% 30.16 in 10.0 mi SW 4.6 mph - N/A   Clear
2:56 AM 43.0 °F - 37.9 °F 82% 30.14 in 10.0 mi Calm Calm - N/A   Clear
3:56 AM 39.9 °F 37.8 °F 37.9 °F 93% 30.13 in 10.0 mi West 3.5 mph - N/A   Clear
4:56 AM 41.0 °F - 37.9 °F 89% 30.12 in 10.0 mi Calm Calm - N/A   Overcast
5:56 AM 39.9 °F 37.8 °F 37.0 °F 89% 30.13 in 10.0 mi Variable 3.5 mph - N/A   Overcast
6:56 AM 39.9 °F 37.8 °F 37.0 °F 89% 30.14 in 10.0 mi WNW 3.5 mph - N/A   Mostly Cloudy
7:56 AM 45.0 °F 43.5 °F 36.0 °F 71% 30.14 in 10.0 mi NNE 3.5 mph - N/A   Mostly Cloudy
8:56 AM 48.9 °F - 37.0 °F 64% 30.14 in 10.0 mi Calm Calm - N/A   Mostly Cloudy
9:56 AM 54.0 °F - 37.0 °F 53% 30.13 in 10.0 mi Variable 3.5 mph - N/A   Mostly Cloudy
10:56 AM 55.9 °F - 36.0 °F 47% 30.09 in 10.0 mi Calm Calm - N/A   Mostly Cloudy
11:56 AM 59.0 °F - 37.0 °F 44% 30.05 in 10.0 mi Calm Calm - N/A   Mostly Cloudy
12:56 PM 61.0 °F - 35.1 °F 38% 30.01 in 10.0 mi East 3.5 mph - N/A   Mostly Cloudy
1:56 PM 63.0 °F - 35.1 °F 35% 29.99 in 10.0 mi ENE 5.8 mph - N/A   Mostly Cloudy
2:56 PM 63.0 °F - 35.1 °F 35% 29.98 in 10.0 mi ENE 4.6 mph - N/A   Scattered Clouds
3:56 PM 62.1 °F - 35.1 °F 37% 29.98 in 10.0 mi ENE 4.6 mph - N/A   Partly Cloudy
4:56 PM 57.0 °F - 37.0 °F 47% 29.99 in 10.0 mi ENE 5.8 mph - N/A   Partly Cloudy
5:56 PM 53.1 °F - 37.9 °F 57% 30.00 in 10.0 mi ESE 3.5 mph - N/A   Partly Cloudy
6:56 PM 50.0 °F - 37.0 °F 61% 30.01 in 10.0 mi West 6.9 mph - N/A   Clear
7:56 PM 48.0 °F - 37.0 °F 66% 30.02 in 10.0 mi WSW 6.9 mph - N/A   Clear
8:56 PM 48.0 °F - 36.0 °F 63% 30.03 in 10.0 mi WSW 5.8 mph - N/A   Scattered Clouds
9:56 PM 42.1 °F - 37.0 °F 82% 30.03 in 10.0 mi Calm Calm - N/A   Clear
10:56 PM 41.0 °F 39.0 °F 37.0 °F 86% 30.01 in 10.0 mi SW 3.5 mph - N/A   Clear
11:56 PM 39.9 °F 35.1 °F 37.0 °F 89% 30.01 in 10.0 mi SSW 6.9 mph - N/A   Clear